Wetbulb
34.91 37.51 38.59 39.28 41.66 44.20 49.52 50.22 47.63 42.39 43.33 44.86 43.70 39.36 40.76 41.72 39.45 41.36 41.60 40.34 40.06 39.32 39.33 37.87 37.46 37.01 37.03 35.54 32.93 31.58 31.19 31.97 30.52 29.10 31.72 32.66 32.01 31.18 31.18 30.67 29.79 31.43 32.16
32.82 34.74 34.79 35.89 37.16 36.21 39.51 40.78 42.75 44.28 44.40 43.12 41.99 41.14 39.62 39.72 40.90 42.07 39.49 39.11 39.92 38.40 38.03 37.80 37.78 36.98 36.33 36.01 34.83 33.44 33.54 32.19 30.86 29.08 30.66 31.16 31.58 28.16 26.54 30.72 30.67 31.37 28.38
31.51 32.32 32.82 33.19 34.04 34.11 34.14 35.61 38.09 43.28 43.48 41.08 42.27 42.16 40.59 39.22 39.22 40.63 40.26 38.68 38.59 37.95 36.81 36.82 36.52 35.69 35.73 35.89 35.70 34.13 32.71 30.91 27.88 28.33 28.42 31.06 30.45 30.63 30.09 29.79 29.34 28.61 30.55
27.35 28.82 29.86 31.04 32.35 32.94 33.61 33.93 34.90 35.34 38.73 41.13 41.31 41.47 40.97 39.06 37.75 37.08 36.35 36.08 36.04 35.68 35.97 36.50 36.50 36.40 36.81 35.66 34.95 34.91 31.84 30.85 29.20 29.38 28.23 29.51 29.56 29.41 26.14 27.19 26.69 26.49 28.14
25.12 26.13 27.50 29.04 31.09 32.15 32.74 33.10 33.75 34.13 34.49 35.05 35.57 36.04 36.23 36.74 36.79 36.24 36.39 36.19 36.01 35.43 35.16 35.30 35.92 35.78 36.51 36.78 35.60 33.80 33.36 31.93 30.89 29.34 27.14 26.64 27.52 27.30 28.02 26.68 27.12 26.70 27.09
23.68 24.10 25.97 27.80 28.72 29.44 30.93 32.27 32.99 33.12 33.42 33.44 34.43 34.92 33.62 33.35 38.63 39.14 37.57 35.67 35.52 35.79 34.96 34.58 34.63 33.92 36.15 37.20 37.60 37.22 36.04 33.35 32.16 30.82 28.20 27.60 28.47 28.21 27.24 26.61 24.34 23.00 24.08
21.91 22.57 23.33 24.91 26.12 27.31 28.74 29.90 30.37 31.64 32.66 32.74 32.90 33.22 33.53 33.60 38.54 38.84 37.60 34.87 35.11 35.45 35.24 34.37 33.49 33.56 33.95 35.19 37.06 37.12 36.29 37.25 36.78 33.60 31.05 29.40 28.43 29.23 28.62 26.13 25.75 22.64 21.30
19.53 20.32 21.29 22.30 23.35 24.98 26.36 27.09 28.14 29.30 30.06 30.89 31.96 32.11 32.29 32.59 38.35 38.67 36.64 34.73 34.86 34.87 34.91 34.29 34.19 33.14 33.95 34.24 34.21 33.54 33.45 34.19 34.08 32.05 32.13 30.95 31.14 30.74 30.48 29.41 27.87 23.53 20.49
18.46 18.35 18.15 18.33 19.87 21.14 22.69 24.40 26.23 27.61 28.27 29.03 30.26 30.74 30.99 31.87 36.74 38.13 36.59 33.30 33.08 33.41 33.92 34.18 34.22 33.18 34.47 35.92 33.67 32.59 32.02 32.09 35.12 34.98 34.71 34.86 34.79 33.90 30.69 28.26 24.86 23.53 17.70
17.01 18.25 18.49 18.10 18.43 16.89 17.73 18.98 23.57 25.58 27.05 27.86 28.70 28.64 30.14 30.59 34.25 36.52 36.76 33.20 32.29 31.74 32.34 32.77 32.38 33.55 34.89 36.16 33.41 32.45 30.66 30.73 31.48 31.58 31.93 33.17 33.71 33.10 33.02 30.32 27.20 23.88 21.66
15.95 16.05 16.41 16.83 17.55 17.61 16.55 17.84 18.14 18.73 20.62 23.02 25.10 25.96 27.27 28.96 30.79 34.66 36.59 33.06 32.39 31.03 31.24 30.97 31.88 34.82 35.16 36.35 35.47 32.93 32.61 32.05 33.14 31.42 30.15 30.30 30.30 29.69 29.81 28.39 28.08 26.11 22.74
12.41 15.13 15.58 16.50 17.74 16.75 13.21 14.82 13.18 14.52 14.91 15.66 15.92 20.54 24.66 27.02 31.50 34.20 35.71 34.63 34.17 31.34 30.23 30.20 31.30 34.69 35.34 36.37 34.96 34.74 35.08 32.92 31.54 30.11 29.27 28.08 28.61 28.91 29.46 28.66 27.65 26.70 26.40
8.85 11.49 13.60 14.48 16.92 16.20 13.38 14.05 13.56 13.15 13.65 14.37 16.44 15.07 17.32 24.51 27.48 34.54 35.12 34.84 34.62 30.39 30.27 31.06 32.86 34.76 35.70 35.89 34.99 34.93 31.87 30.91 29.40 28.04 27.50 26.77 27.20 26.77 25.97 25.71 25.51 26.58 26.64
4.71 7.37 10.91 11.88 13.65 15.19 16.59 16.54 13.56 12.96 12.97 15.21 14.88 13.58 13.66 18.26 22.02 26.75 30.41 31.26 32.30 29.73 31.38 31.61 32.68 33.66 34.20 32.60 31.96 32.52 29.13 29.25 28.11 27.59 26.96 26.18 25.29 23.22 20.39 22.88 22.69 23.45 23.74
5.82 8.14 8.13 9.52 8.26 10.99 14.13 12.89 18.08 16.09 17.91 21.70 17.01 11.01 10.82 12.41 20.20 26.80 29.44 29.43 25.29 27.76 28.26 30.68 30.18 29.61 28.93 29.40 29.58 28.68 26.84 27.52 26.88 26.56 26.00 24.67 24.15 23.67 22.20 24.73 24.49 23.09 17.73
3.19 4.72 4.43 6.13 6.40 8.87 8.71 10.91 19.85 23.47 25.41 25.82 25.83 25.04 17.36 24.87 27.45 28.08 29.21 31.94 31.67 31.77 23.48 21.63 21.79 25.63 26.39 27.02 27.11 26.51 27.23 26.88 26.22 26.50 25.81 25.00 24.03 23.78 22.02 22.63 20.89 18.58 17.00
-6.85 -0.19 -0.23 1.38 2.13 2.40 2.77 3.41 5.34 12.82 21.87 24.13 26.25 26.62 27.31 26.88 27.78 28.88 29.18 30.39 33.15 30.81 20.27 21.78 23.39 24.49 24.67 25.27 24.58 23.96 22.31 24.96 26.04 26.07 25.31 24.76 24.39 23.22 22.67 22.63 20.08 14.23 11.19
-16.13 -8.27 -8.52 -5.39 -6.50 -4.76 -1.83 -0.23 -2.37 -1.26 1.11 6.79 17.10 23.12 25.17 27.10 28.58 29.34 29.88 30.15 28.86 27.09 23.49 22.25 21.81 21.99 23.26 23.42 23.38 22.24 21.77 22.23 22.62 22.92 23.28 23.05 22.51 20.44 15.24 17.64 12.07 10.47 5.14
-9.95 -8.40 -11.00 -11.23 -7.52 -5.52 -6.09 -3.75 -3.97 -3.98 -3.60 -4.06 0.53 15.05 15.46 24.02 28.37 28.46 30.28 21.80 21.39 23.31 24.06 23.65 23.12 22.07 21.96 22.89 22.45 22.17 21.68 21.10 21.09 20.74 19.90 19.20 17.92 15.33 9.02 11.21 10.35 8.81 6.18
-16.58 -9.90 -7.75 -12.50 -10.24 -8.01 -6.56 -6.00 -4.87 -4.74 -4.42 -5.27 -4.36 0.12 4.68 14.19 16.55 19.37 22.37 23.35 22.50 21.21 21.08 21.99 22.49 21.95 21.96 22.17 21.50 20.23 18.78 18.78 18.13 17.11 16.44 16.19 13.17 14.16 11.05 8.12 8.64 4.22 1.65
-15.26 -15.24 -10.09 -14.43 -13.30 -11.60 -10.04 -9.02 -7.63 -8.35 -6.61 -6.03 -6.14 -3.37 18.79 5.85 9.30 10.57 18.17 19.38 18.60 14.88 16.28 19.95 21.36 21.97 22.13 21.53 20.33 18.93 17.88 16.50 15.93 15.25 13.89 12.74 11.48 9.53 9.18 9.54 6.45 3.41 2.28
-16.80 -16.64 -17.40 -15.95 -14.30 -12.21 -10.94 -8.33 -9.24 -9.15 -9.37 -8.24 -3.86 -3.58 16.90 -0.25 3.36 7.43 11.04 13.55 14.26 15.58 18.74 19.54 20.40 21.42 21.52 20.93 20.08 18.84 17.49 16.44 15.31 14.19 12.89 11.81 10.45 9.50 7.48 5.46 4.13 2.10 -2.36
-16.51 -16.58 -16.78 -16.96 -16.11 -12.41 -12.76 -12.72 -11.02 -10.76 -9.84 -10.85 -10.69 -6.38 -6.96 -5.51 -3.58 -1.79 1.98 7.08 10.97 13.09 15.35 19.97 19.91 19.36 20.02 19.93 20.25 19.90 17.98 16.71 15.88 15.35 13.45 12.24 10.38 7.74 5.38 3.90 1.40 -3.73 -4.44
-16.38 -15.64 -14.50 -14.24 -12.74 -14.28 -15.19 -13.92 -14.23 -11.33 -12.00 -11.87 -12.88 -11.29 -8.46 -8.62 -6.18 -4.82 -5.31 -2.02 2.15 4.30 9.65 17.56 19.59 18.46 17.46 16.68 16.57 17.51 18.17 16.97 16.93 16.74 14.64 11.62 7.87 4.22 2.47 -1.18 -3.82 -10.53 -14.39
-16.09 -15.68 -15.24 -13.74 -8.88 -3.69 -4.41 -6.52 -6.70 -11.58 -13.92 -13.10 -11.47 -11.53 -11.42 -10.62 -8.61 -8.50 -7.55 -4.67 -6.52 -0.99 2.84 7.00 13.03 16.55 16.63 15.22 14.68 14.05 15.00 13.88 12.00 11.30 10.10 8.38 4.95 2.02 -1.56 -4.25 -11.80 -16.33 -17.62
-12.72 -12.14 -10.80 -13.05 -10.15 -3.23 -1.74 -0.33 1.09 0.63 -1.02 0.33 -2.13 -8.62 -11.29 -11.07 -10.78 -10.20 -10.20 -9.64 -3.82 0.16 -5.38 -3.71 4.55 10.01 11.54 12.13 11.97 10.26 9.75 9.59 6.24 6.21 5.21 5.28 2.09 -3.67 -6.99 -7.82 -11.76 -15.33 -17.78
MSLP
999.86 999.78 999.51 999.86 1000.06 1000.31 1000.84 1001.53 1002.10 1002.84 1003.42 1004.31 1005.24 1005.95 1006.78 1007.54 1008.48 1008.53 1009.95 1009.92 1010.43 1011.30 1012.01 1012.66 1013.30 1013.98 1014.87 1015.63 1016.29 1016.92 1017.59 1017.99 1019.58 1020.86 1021.00 1021.22 1021.48 1021.63 1021.68 1021.84 1022.12 1022.38 1022.58
1000.89 1000.16 1000.23 1000.72 1000.97 1001.21 1001.58 1002.01 1002.07 1002.75 1003.40 1004.06 1004.96 1005.78 1006.23 1007.05 1007.98 1008.13 1009.25 1009.93 1010.19 1010.85 1011.52 1012.30 1012.87 1013.61 1014.45 1014.93 1015.80 1016.64 1017.11 1017.46 1018.51 1019.96 1020.78 1021.17 1021.46 1021.84 1021.96 1022.06 1022.24 1022.31 1022.57
1001.64 1001.55 1001.82 1001.94 1002.04 1002.37 1002.65 1002.62 1002.46 1002.79 1003.36 1004.08 1004.46 1005.22 1006.13 1006.73 1007.42 1007.79 1008.48 1009.16 1009.71 1010.25 1010.95 1011.67 1012.24 1013.01 1013.92 1014.49 1015.09 1015.96 1016.61 1017.22 1017.87 1019.01 1020.42 1020.92 1021.35 1021.66 1022.08 1022.30 1022.35 1022.34 1022.28
1002.95 1003.06 1003.23 1003.28 1003.25 1003.53 1003.47 1003.35 1003.14 1003.18 1003.52 1003.84 1004.34 1004.75 1005.31 1006.08 1006.60 1007.29 1007.95 1008.73 1009.24 1009.92 1010.50 1011.14 1011.86 1012.44 1013.01 1013.73 1014.40 1015.10 1016.04 1016.86 1017.52 1018.33 1019.55 1020.31 1020.89 1021.29 1021.59 1021.98 1022.31 1022.24 1022.12
1004.42 1004.81 1004.74 1004.32 1004.09 1004.17 1004.30 1004.14 1003.84 1003.78 1003.82 1004.10 1004.41 1004.68 1005.05 1005.35 1006.13 1006.97 1007.45 1008.29 1008.94 1009.61 1010.12 1010.71 1011.30 1011.88 1012.45 1013.09 1013.77 1014.48 1015.34 1016.36 1017.10 1017.77 1018.72 1019.56 1020.13 1020.80 1020.91 1021.09 1021.62 1022.08 1022.14
1005.28 1006.11 1005.76 1005.45 1005.22 1005.16 1005.11 1004.82 1004.54 1004.62 1004.46 1004.51 1004.71 1005.07 1005.48 1005.64 1005.98 1006.25 1006.51 1007.85 1008.46 1009.13 1009.82 1010.39 1010.80 1011.53 1012.10 1012.44 1012.99 1013.80 1014.03 1014.96 1016.13 1016.88 1017.86 1018.33 1018.82 1019.38 1020.06 1020.66 1021.43 1022.26 1022.61
1006.88 1006.74 1006.43 1006.55 1006.77 1006.54 1005.98 1005.55 1005.42 1005.43 1005.19 1005.32 1005.12 1005.23 1005.51 1005.62 1005.95 1006.50 1006.88 1007.59 1008.14 1008.71 1009.33 1009.86 1010.45 1010.97 1011.84 1012.49 1012.73 1013.27 1013.92 1014.18 1014.44 1015.22 1016.48 1017.26 1017.92 1018.34 1019.15 1020.09 1020.97 1021.62 1022.11
1007.78 1007.89 1007.75 1008.22 1007.85 1007.32 1006.83 1006.47 1006.19 1006.06 1005.95 1005.80 1005.67 1005.66 1005.76 1005.89 1006.04 1006.37 1006.90 1007.42 1007.90 1008.49 1009.01 1009.37 1009.71 1010.30 1011.34 1012.06 1012.41 1013.07 1013.65 1014.20 1014.65 1015.03 1015.87 1016.73 1017.23 1018.00 1018.51 1019.37 1020.29 1021.36 1021.91
1009.07 1009.20 1009.44 1009.09 1008.78 1008.24 1007.85 1007.48 1007.10 1006.75 1006.39 1006.21 1006.14 1006.10 1006.16 1006.22 1006.19 1006.45 1006.82 1007.38 1007.83 1008.23 1008.53 1008.95 1009.42 1010.15 1010.76 1011.41 1011.91 1012.62 1013.61 1013.99 1014.53 1014.89 1015.65 1016.36 1016.79 1017.53 1018.56 1019.48 1020.40 1021.21 1021.78
1010.62 1010.52 1010.29 1009.71 1009.22 1008.97 1008.76 1008.32 1007.97 1007.59 1007.29 1006.95 1006.69 1006.57 1006.42 1006.46 1006.39 1006.44 1006.66 1007.23 1007.71 1008.16 1008.63 1009.02 1009.33 1009.82 1010.36 1010.94 1011.44 1012.03 1013.08 1013.54 1014.28 1015.18 1015.84 1016.33 1016.85 1017.49 1018.10 1018.94 1019.62 1020.48 1021.24
1011.68 1011.15 1010.57 1010.08 1009.79 1009.65 1009.41 1009.11 1008.78 1008.38 1008.09 1007.84 1007.60 1007.39 1007.12 1006.88 1006.68 1006.54 1006.59 1006.98 1007.46 1008.01 1008.33 1008.77 1009.13 1009.51 1009.94 1010.36 1011.00 1011.62 1012.20 1013.00 1013.88 1014.76 1015.45 1016.35 1017.04 1017.47 1018.10 1018.77 1019.11 1019.57 1020.31
1011.91 1011.41 1011.14 1010.88 1010.50 1010.29 1010.13 1009.86 1009.54 1009.12 1008.90 1008.74 1008.42 1008.01 1007.69 1007.29 1006.74 1006.45 1006.46 1006.85 1007.25 1007.83 1008.28 1008.69 1009.02 1009.23 1009.62 1010.18 1010.91 1011.54 1012.10 1012.85 1013.63 1014.55 1015.38 1016.19 1016.80 1017.49 1018.06 1018.59 1019.26 1019.44 1019.75
1012.70 1012.27 1011.89 1011.49 1011.24 1010.95 1010.78 1010.58 1010.27 1009.90 1009.69 1009.51 1009.23 1008.92 1008.44 1007.80 1007.33 1006.75 1006.77 1007.11 1007.47 1007.97 1008.25 1008.55 1008.83 1009.08 1009.50 1010.14 1010.80 1011.35 1012.02 1012.75 1013.50 1014.41 1015.17 1015.94 1016.58 1017.40 1018.11 1018.67 1019.32 1019.50 1020.04
1013.40 1012.97 1012.55 1012.29 1011.88 1011.43 1011.12 1010.95 1010.81 1010.67 1010.41 1009.97 1009.69 1009.48 1009.14 1008.57 1008.21 1007.87 1007.60 1007.61 1007.75 1008.10 1008.31 1008.59 1008.85 1009.13 1009.67 1010.26 1011.03 1011.56 1012.20 1012.79 1013.48 1014.20 1014.97 1015.79 1016.86 1017.52 1018.35 1018.80 1019.46 1019.75 1020.17
1014.19 1013.74 1013.38 1012.98 1012.65 1012.26 1011.77 1011.27 1010.83 1010.65 1010.52 1009.98 1009.82 1009.68 1009.72 1009.25 1008.71 1008.40 1008.16 1008.07 1008.30 1008.35 1008.54 1008.65 1008.99 1009.42 1010.00 1010.60 1011.20 1011.84 1012.57 1013.12 1013.79 1014.43 1015.11 1015.92 1016.93 1017.58 1018.34 1018.75 1019.27 1019.73 1020.39
1015.16 1014.69 1014.37 1013.95 1013.48 1012.95 1012.46 1011.69 1010.94 1010.46 1010.15 1009.95 1009.70 1009.44 1009.40 1009.06 1008.59 1008.35 1008.28 1008.15 1008.28 1008.48 1008.83 1009.12 1009.51 1009.75 1010.21 1010.75 1011.35 1012.01 1012.66 1013.30 1013.92 1014.52 1015.22 1016.09 1016.93 1017.60 1018.25 1018.88 1019.39 1020.02 1020.70
1015.85 1015.42 1014.97 1014.62 1014.30 1013.92 1013.39 1013.10 1012.37 1011.13 1010.54 1010.13 1010.00 1009.64 1009.29 1008.94 1008.55 1008.25 1008.20 1008.25 1008.26 1008.59 1009.09 1009.55 1009.87 1010.14 1010.54 1011.06 1011.64 1012.22 1012.88 1013.44 1013.98 1014.64 1015.35 1016.11 1016.84 1017.57 1018.29 1018.99 1019.67 1020.40 1021.22
1016.10 1015.76 1015.48 1015.24 1014.90 1014.48 1014.05 1013.63 1013.34 1013.13 1012.32 1011.49 1010.50 1010.19 1009.75 1009.09 1008.48 1008.20 1008.08 1008.22 1008.37 1008.81 1009.28 1009.79 1010.18 1010.52 1010.94 1011.31 1011.85 1012.52 1013.21 1013.80 1014.31 1014.87 1015.51 1016.14 1016.82 1017.60 1018.55 1019.38 1020.12 1020.82 1021.67
1016.38 1016.02 1015.78 1015.46 1015.08 1014.69 1014.35 1013.96 1013.56 1013.38 1013.27 1012.72 1011.77 1010.55 1010.32 1009.46 1008.66 1008.39 1007.83 1008.33 1008.84 1009.17 1009.56 1009.98 1010.31 1010.71 1011.19 1011.66 1012.04 1012.62 1013.26 1013.97 1014.58 1015.17 1015.87 1016.54 1017.28 1017.98 1018.86 1019.61 1020.47 1021.16 1021.94
1016.51 1016.23 1015.85 1015.39 1015.06 1014.74 1014.46 1014.29 1014.09 1013.89 1013.69 1013.36 1012.78 1011.78 1011.19 1010.33 1009.89 1009.57 1009.22 1009.09 1009.38 1009.66 1009.90 1010.27 1010.54 1010.92 1011.27 1011.73 1012.27 1012.92 1013.79 1014.40 1015.09 1015.76 1016.39 1016.96 1017.73 1018.29 1019.15 1019.95 1020.78 1021.58 1022.47
1016.33 1016.06 1015.86 1015.52 1015.12 1014.88 1014.64 1014.52 1014.27 1014.14 1014.04 1013.66 1013.02 1012.13 1011.00 1011.19 1011.04 1010.67 1010.41 1010.19 1010.16 1010.35 1010.51 1010.59 1010.83 1011.05 1011.41 1011.92 1012.62 1013.31 1014.09 1014.80 1015.52 1016.08 1016.75 1017.47 1018.11 1018.98 1019.64 1020.29 1021.15 1021.92 1022.79
1016.10 1015.88 1015.71 1015.50 1015.12 1014.79 1014.53 1014.28 1014.25 1014.16 1014.01 1013.86 1013.10 1012.50 1011.52 1011.88 1011.71 1011.43 1011.16 1010.94 1010.68 1010.58 1010.66 1010.83 1011.03 1011.33 1011.72 1012.17 1012.76 1013.49 1014.14 1014.92 1015.72 1016.40 1017.06 1017.70 1018.44 1019.25 1020.06 1020.93 1021.79 1022.64 1023.30
1015.75 1015.53 1015.31 1015.10 1014.88 1014.63 1014.40 1014.12 1013.93 1013.89 1013.75 1013.59 1013.40 1013.05 1012.69 1012.51 1012.34 1012.21 1012.02 1011.42 1011.21 1011.13 1011.10 1011.17 1011.39 1011.79 1012.12 1012.54 1012.97 1013.47 1014.16 1014.89 1015.58 1016.28 1017.13 1017.92 1018.73 1019.54 1020.32 1021.19 1022.02 1022.99 1023.79
1015.35 1015.17 1015.00 1014.72 1014.50 1014.27 1014.16 1014.01 1013.75 1013.57 1013.48 1013.34 1013.23 1013.17 1013.08 1012.97 1012.89 1012.69 1012.20 1011.94 1011.76 1011.64 1011.63 1011.66 1011.75 1012.06 1012.56 1013.09 1013.53 1013.96 1014.43 1015.06 1015.69 1016.30 1016.89 1017.78 1018.82 1019.78 1020.66 1021.61 1022.42 1023.45 1024.34
1014.83 1014.68 1014.59 1014.42 1014.19 1013.91 1013.64 1013.44 1013.34 1013.22 1013.14 1013.03 1012.92 1012.95 1013.06 1013.09 1012.94 1012.57 1012.34 1012.26 1012.24 1012.25 1012.33 1012.34 1012.26 1012.52 1012.98 1013.51 1014.02 1014.55 1015.05 1015.55 1016.07 1016.53 1017.15 1017.90 1018.84 1019.87 1020.84 1021.71 1022.79 1023.87 1024.73
1014.09 1014.00 1013.87 1013.76 1013.60 1013.38 1013.14 1012.93 1012.71 1012.57 1012.51 1012.47 1012.47 1012.50 1012.80 1012.93 1012.64 1012.51 1012.45 1012.50 1012.59 1012.80 1013.02 1013.15 1013.01 1013.10 1013.44 1013.91 1014.39 1014.94 1015.44 1015.93 1016.49 1016.90 1017.44 1018.11 1019.10 1020.21 1021.04 1022.00 1023.02 1023.93 1024.94
Wind_Speed
7 6 8 8 8 6 5 8 8 6 9 10 11 9 12 12 9 9 8 10 12 10 7 10 10 7 6 5 3 2 3 4 4 1 1 1 1 2 2 1 1 2 2
7 8 11 9 8 7 3 2 7 8 9 12 12 11 11 12 13 14 11 8 11 10 11 9 9 7 8 8 6 7 5 4 5 4 2 2 2 3 2 1 2 3 2
11 11 10 10 10 8 6 3 1 7 7 7 10 12 12 12 12 12 11 11 11 10 10 11 10 10 9 7 7 7 5 3 3 4 4 1 2 1 1 1 3 3 3
11 12 11 10 8 7 6 5 2 2 5 9 9 10 10 10 10 10 9 9 8 7 8 8 8 12 11 11 9 9 6 6 3 4 3 3 2 3 2 3 2 2 2
11 11 10 9 8 8 7 6 5 4 4 4 3 2 6 8 8 11 10 10 10 9 8 8 8 9 11 11 8 9 10 7 5 4 3 3 3 3 5 3 3 1 1
13 11 10 10 9 8 7 6 6 5 5 2 4 5 3 1 9 15 12 10 9 9 9 8 7 9 12 17 17 17 16 13 10 6 3 4 5 4 3 3 3 3 2
12 12 13 11 9 8 7 7 7 5 4 3 3 3 4 4 9 10 11 6 8 8 8 8 7 6 8 9 14 14 14 16 13 12 10 5 5 6 6 4 3 3 3
13 12 12 10 9 9 8 8 7 4 4 3 3 3 2 2 8 12 14 7 7 8 9 9 9 9 11 11 10 9 9 8 7 5 6 6 4 6 6 4 6 4 1
12 11 9 8 8 9 9 8 6 5 5 5 3 3 2 1 4 7 9 5 4 6 6 8 9 10 14 18 12 11 9 7 11 14 13 13 13 12 10 6 4 3 0
10 9 7 7 7 8 7 6 5 4 4 4 5 5 4 1 3 6 7 4 4 4 4 6 11 10 16 21 12 13 12 11 11 9 7 8 9 9 15 6 6 4 3
7 6 7 8 7 7 6 5 5 5 5 5 5 4 5 4 4 6 9 6 4 4 4 4 4 15 17 22 19 12 12 13 14 9 7 6 5 6 6 4 6 4 3
8 7 7 7 6 6 6 6 5 6 5 5 5 4 4 5 6 6 10 10 10 5 4 3 4 16 18 21 17 15 17 14 8 8 7 6 6 5 5 5 5 3 3
6 7 7 7 6 5 5 6 4 5 4 4 4 4 4 5 5 9 9 7 8 3 3 7 11 16 18 16 16 17 15 7 8 7 7 5 4 4 5 5 4 5 4
5 5 5 6 7 6 4 3 3 4 4 4 4 4 3 3 4 4 2 2 3 3 6 5 7 9 9 8 10 11 6 6 7 6 6 5 4 4 2 2 2 3 3
5 5 6 4 5 5 4 2 3 2 2 4 2 2 2 3 2 5 4 2 2 3 4 4 5 6 6 6 6 6 6 6 6 5 6 5 5 5 3 3 3 3 3
4 4 3 4 4 4 4 5 9 7 10 9 8 5 2 6 8 6 6 4 8 10 3 2 2 5 6 6 6 6 6 7 5 5 6 6 6 6 4 2 2 2 3
2 5 4 4 3 3 3 3 5 9 10 6 11 8 10 8 8 6 7 7 10 10 3 2 3 4 5 5 5 5 3 5 7 6 6 6 5 5 6 5 3 3 2
2 3 2 3 2 3 2 2 1 1 3 4 8 10 10 11 9 7 7 6 3 4 3 4 4 4 4 5 5 4 5 5 5 5 6 5 5 6 3 4 3 3 3
4 3 2 2 3 3 2 3 1 1 2 3 4 6 7 13 10 8 3 3 3 4 4 4 4 4 5 5 5 6 7 5 5 5 5 4 4 4 3 4 4 4 5
3 6 4 2 2 3 2 2 2 1 2 2 3 3 4 4 4 4 3 3 4 3 3 4 4 4 5 6 6 6 5 6 5 4 5 5 4 4 4 5 4 4 2
2 3 3 3 2 2 2 2 2 1 2 2 3 3 7 2 1 2 3 2 3 3 2 3 3 4 5 6 6 6 6 5 4 5 5 5 5 4 4 4 4 4 5
2 2 1 2 2 2 3 2 2 2 2 2 3 4 8 2 1 0 1 2 2 2 2 3 3 4 5 6 6 6 7 6 5 5 5 5 5 5 4 4 4 3 3
2 2 2 2 2 3 3 2 2 2 2 2 2 3 2 2 1 0 1 1 1 2 2 3 4 4 4 5 4 5 7 6 6 6 6 6 5 5 4 4 4 3 2
2 3 3 3 2 2 2 3 3 3 3 3 2 2 2 2 2 2 2 2 1 2 2 3 4 6 6 5 5 5 5 5 5 5 7 6 6 6 4 4 3 3 4
3 3 3 3 3 3 3 3 4 3 3 3 3 2 2 2 2 2 1 1 1 2 3 3 3 6 7 8 7 7 7 8 5 6 5 7 8 8 5 5 4 3 4
3 4 4 2 3 3 3 4 4 3 3 3 4 4 3 3 3 2 2 2 2 3 3 3 4 6 7 6 7 8 8 9 7 7 6 7 8 6 5 6 7 4 5
Wind_Direction
36 64 63 52 46 50 157 167 159 141 151 167 175 162 171 173 178 174 214 181 181 178 178 181 195 168 176 175 158 139 145 134 149 136 122 95 107 167 153 138 151 198 247
23 56 59 52 47 46 13 170 144 164 171 170 170 179 178 177 185 188 188 181 187 184 183 182 194 175 182 173 175 184 174 163 130 152 144 140 164 197 127 150 233 218 211
32 40 50 46 42 28 17 333 148 159 185 169 173 183 186 185 183 192 189 185 187 190 184 192 191 174 188 175 181 178 161 137 114 126 141 120 113 139 134 223 227 240 233
44 37 35 32 41 32 19 13 56 88 164 178 186 191 183 183 184 180 170 178 183 182 178 186 180 188 193 185 181 180 154 147 138 122 136 139 153 160 155 167 232 209 235
49 44 31 23 29 30 24 16 31 46 109 98 144 190 168 166 182 182 179 181 183 181 180 181 182 186 185 187 179 175 164 164 158 154 134 141 157 157 191 173 154 130 269
45 38 32 30 25 22 15 17 35 36 42 48 124 129 108 114 186 190 171 181 181 187 190 182 167 177 191 186 190 188 182 173 184 171 156 175 173 157 137 147 130 130 247
41 33 30 22 18 13 13 27 31 22 32 41 68 113 154 141 165 176 168 169 178 185 188 179 171 169 179 191 192 185 194 197 183 179 184 178 153 161 133 125 145 145 207
38 30 26 13 13 10 20 20 16 8 25 33 48 66 88 148 184 177 173 166 174 181 187 178 178 167 185 180 169 172 179 179 175 143 140 136 122 144 137 152 162 142 57
26 23 10 9 12 13 16 7 6 5 13 15 18 40 98 168 221 200 174 156 166 180 178 177 182 181 186 182 176 175 175 165 151 138 134 139 138 146 145 124 144 127 193
10 4 357 7 18 13 360 358 355 352 6 7 18 16 354 318 263 235 194 164 174 154 157 180 188 181 183 185 181 173 179 169 148 141 144 149 158 163 162 171 154 149 133
344 347 2 6 7 12 355 360 352 3 16 16 17 10 8 347 298 260 237 171 175 165 175 176 181 194 191 192 188 185 188 155 156 154 145 144 151 152 159 159 166 144 137
347 5 10 9 9 7 9 357 4 13 21 12 8 2 2 353 331 248 243 167 162 162 170 162 182 199 198 196 186 182 163 154 150 148 150 156 164 169 161 160 163 135 102
359 4 3 359 6 10 18 4 2 10 23 2 10 1 346 352 355 37 108 139 163 137 149 181 188 201 196 189 162 155 145 148 147 156 164 160 150 129 116 98 80 101 114
356 358 358 6 355 358 1 14 10 4 5 7 358 351 334 347 353 354 33 51 167 135 167 178 190 179 162 138 147 146 133 143 152 157 147 123 114 114 105 131 119 133 112
346 350 355 350 355 345 342 308 336 274 266 333 305 261 338 331 309 323 332 114 122 152 125 136 136 132 131 140 140 125 128 128 131 126 134 129 130 133 122 136 112 113 121
341 349 347 339 340 339 344 339 347 350 344 330 325 315 270 286 304 298 285 239 175 156 66 95 101 133 142 143 141 135 141 140 136 134 133 140 149 151 132 117 108 115 126
322 326 329 333 329 342 346 355 344 333 349 350 357 350 340 318 307 286 248 248 195 151 106 103 121 134 133 131 132 136 118 136 135 141 142 145 147 141 140 142 104 104 75
277 286 280 293 291 306 308 303 290 343 326 317 336 334 343 338 310 286 240 218 205 130 124 132 128 125 133 135 132 119 120 123 125 130 133 134 134 136 119 134 136 127 115
305 301 288 282 282 279 277 295 287 313 296 287 325 341 346 341 10 34 9 113 122 133 132 132 131 131 131 133 126 124 130 128 125 121 119 124 125 121 106 117 117 103 109
256 269 289 302 315 323 326 319 321 308 304 299 312 281 319 352 11 4 19 74 87 91 104 122 126 127 130 128 122 119 113 119 122 119 128 127 120 123 128 131 132 126 111
247 278 283 308 295 284 273 285 282 283 279 292 264 266 289 129 352 8 12 39 107 114 108 115 119 119 119 120 121 122 125 120 128 125 124 122 128 110 105 102 108 97 122
237 262 267 263 290 294 267 249 261 244 249 274 292 309 351 54 68 325 42 40 28 60 97 118 114 117 126 131 133 134 134 131 126 120 122 121 118 116 116 111 111 114 105
224 250 268 268 248 287 299 274 255 255 256 242 277 305 335 335 323 249 262 253 85 68 55 103 115 106 98 100 104 125 135 146 147 140 139 140 137 130 129 130 136 112 116
221 226 238 261 271 254 254 272 270 255 257 259 238 243 261 267 264 282 273 314 32 73 75 99 107 115 108 96 92 86 92 104 124 146 138 137 131 128 122 118 125 108 117
236 241 233 248 261 262 261 246 241 239 241 239 252 230 225 237 243 244 264 27 86 98 83 90 103 124 122 121 118 113 117 119 121 122 122 126 136 141 131 122 129 103 104
238 236 239 239 246 250 250 259 255 237 229 233 231 235 223 210 223 226 208 160 122 108 95 63 92 115 119 120 122 123 127 124 122 121 122 126 131 126 123 123 122 111 121